[[{"header":{"parameterUnit":"m.s-1","parameterCategory":2,"la1":30.2991,"la2":30.254,"lo1":-89.0895,"lo2":-89.0444,"dy":0.0017,"dx":0.0017,"nx":28,"ny":28,"refTime":"2025-02-25T03:00:00:Z","depth":"0","parameterNumber":2,"parameterNumberName":"U-component_of_CURRENTS"},"data":[0,0,0,0,0,0,0,0,0,0,0,0,0,0,0,0,0,0,0,0,0,0,0,0,0,0,0,0,0,0,0,0,0,0,0,0,0,0,0,0,0,0,0,0,0,0,0,0,0,0,0,0,0,0,0,0,0,0,0.3549,0.3549,0,0.3561,0.3561,0.3561,0.3537,0.3536,0.3536,0.3535,0.3563,0.3564,0.3566,0,0,0,0,0,0,0,0,0,0,0,0,0,0.3508,0.3509,0.3549,0.3549,0.355,0.3561,0.3561,0.3561,0.3537,0.3536,0.3535,0.3535,0.3563,0.3564,0.3566,0,0,0,0,0,0,0,0,0,0,0,0,0,0.3521,0.3509,0.3549,0.3541,0.354,0.3562,0.3561,0.3561,0.3537,0.3536,0.3535,0.3534,0.3562,0.3564,0.3566,0.3596,0,0,0.3572,0.3573,0,0,0,0,0,0,0,0,0.3521,0.3523,0.3542,0.3541,0.3541,0.3549,0.3557,0.3574,0.3537,0.3536,0.3535,0.3534,0.3562,0.3564,0.3565,0.3597,0.3598,0.3572,0.3573,0.3574,0.3575,0,0,0,0,0,0,0,0.352,0.3522,0.3551,0.3542,0.3542,0.3538,0.3539,0.356,0.3552,0.3536,0.3535,0.354,0.3561,0.3563,0.3565,0.3599,0.3572,0.3574,0.3575,0.3576,0.3749,0.3752,0,0,0,0,0,0,0.3524,0.3521,0.3551,0.3552,0.3531,0.354,0.354,0.3545,0.3551,0.3552,0.3541,0.3539,0.356,0.3563,0.3566,0.3677,0.3574,0.3576,0.3577,0.3745,0.3749,0.3753,0,0,0,0,0,0,0.3523,0.3527,0.3551,0.3539,0.3542,0.3541,0.3547,0.3546,0.3551,0.3556,0.3556,0.3548,0.3559,0.3563,0.3601,0.3675,0.3577,0.3579,0.3741,0.3746,0.3751,0.3851,0,0,0,0,0,0,0.3522,0.3526,0.3532,0.3539,0.3543,0.3574,0.3548,0.3547,0.3557,0.3555,0.3562,0.3563,0.3559,0.3598,0.3603,0.3676,0.358,0.3737,0.3743,0.375,0.3844,0.3859,0.3872,0,0,0,0,0,0.352,0.3533,0.3533,0.3536,0.3551,0.3576,0.3578,0.3572,0.3558,0.3571,0.3579,0.3563,0.3643,0.3601,0.3606,0.3682,0.3734,0.3742,0.3749,0.3837,0.3856,0.3872,0,0,0,0,0,0,0.3518,0.3533,0.3532,0.3548,0.3566,0.3573,0.3584,0.3581,0.3595,0.3595,0.3589,0.3592,0.366,0.3657,0.3611,0.3755,0.3694,0.3703,0.376,0.3778,0.3792,0.3813,0.3582,0,0,0,0,0,0.3522,0.3535,0.3552,0.3566,0.3578,0.3583,0.3591,0.3594,0.3607,0.3611,0.3617,0.3645,0.3697,0.372,0.375,0.3816,0.384,0.3877,0.3891,0.3903,0.3927,0.4015,0.4039,0.3778,0.3778,0.3778,0,0,0.3523,0.3535,0.3541,0.3567,0.3577,0.3621,0.3585,0.361,0.366,0.3615,0.3676,0.3687,0.3724,0.3804,0.3837,0.3809,0.3995,0.3913,0.3923,0.3941,0.4026,0.4051,0.4073,0.3783,0.3783,0.3782,0,0,0.3548,0.3547,0.3575,0.3601,0.3631,0.3645,0.3657,0.3676,0.3697,0.3749,0.3753,0.3809,0.3852,0.3916,0.3951,0.4067,0.4063,0.4077,0.4174,0.4258,0.428,0.43,0.4376,0.4401,0.409,0.4091,0.4091,0,0.3553,0.3592,0.3587,0.3634,0.3669,0.3664,0.3721,0.3753,0.3783,0.3828,0.3782,0.3905,0.3922,0.4068,0.4109,0.4104,0.4136,0.4098,0.4277,0.4296,0.4315,0.4387,0.4414,0.4096,0.4096,0.4095,0.4095,0,0.3607,0.3647,0.3669,0.3731,0.3767,0.3811,0.386,0.3904,0.3917,0.3952,0.4062,0.4081,0.416,0.4187,0.4181,0.4343,0.4319,0.4276,0.4227,0.4347,0.4416,0.4442,0.4105,0.4103,0.4101,0.4099,0,0,0.36,0.3691,0.3701,0.3749,0.3826,0.3857,0.3964,0.4061,0.4133,0.417,0.4276,0.437,0.4365,0.4408,0.4418,0.4491,0.4646,0.4442,0.4443,0.4508,0.4834,0.476,0.478,0.4623,0.4627,0.4631,0.4833,0,0.3651,0.3749,0.379,0.3895,0.3952,0.4007,0.41,0.4189,0.4248,0.4343,0.4412,0.4496,0.4459,0.4491,0.4572,0.462,0.4718,0.4596,0.4716,0.4721,0.4632,0.4809,0.4608,0.4766,0.4859,0.4863,0.4866,0,0.3696,0.3758,0.3863,0.3984,0.4013,0.4073,0.4215,0.4301,0.4449,0.4499,0.4606,0.4637,0.4787,0.4702,0.4888,0.4805,0.4848,0.487,0.4878,0.4793,0.4696,0.4661,0.4809,0.472,0.4906,0.4902,0.4899,0,0.3681,0.3812,0.3892,0.3933,0.4065,0.4127,0.4199,0.434,0.444,0.4595,0.4673,0.4819,0.4898,0.498,0.5043,0.4975,0.5219,0.5127,0.5117,0.5111,0.496,0.4932,0.5026,0.5284,0.5284,0.5283,0.5283,0,0.3714,0.3778,0.3882,0.3922,0.4023,0.4115,0.4239,0.4334,0.4501,0.4608,0.4737,0.4849,0.4967,0.5104,0.5131,0.5226,0.5306,0.5189,0.5181,0.4989,0.4963,0.4887,0.4827,0.5291,0.5289,0.5288,0.5286,0,0.3677,0.3753,0.3841,0.397,0.4011,0.4071,0.4244,0.4327,0.4494,0.4642,0.4701,0.493,0.5089,0.5213,0.5364,0.5342,0.5286,0.5438,0.5204,0.5164,0.5,0.4951,0.4857,0.4708,0.5453,0.5452,0.5452,0,0.3662,0.3704,0.3834,0.3873,0.3923,0.4033,0.41,0.4289,0.4381,0.4663,0.4722,0.4969,0.5101,0.5349,0.5362,0.5457,0.5304,0.5312,0.5145,0.5023,0.4964,0.475,0.4614,0.4996,0.4992,0.4989,0.4986,0,0.3622,0.3662,0.3722,0.3802,0.3864,0.3957,0.4067,0.4165,0.4365,0.4498,0.4689,0.4838,0.5095,0.5118,0.5268,0.5282,0.5047,0.5245,0.5189,0.4698,0.4403,0.4241,0.4834,0.4957,0.496,0.4962,0.4964,0.4965,0.3559,0.3578,0.3643,0.3704,0.3778,0.3838,0.3848,0.3983,0.4109,0.4236,0.4494,0.4604,0.4825,0.5005,0.5008,0.4916,0.486,0.4768,0.4751,0.4572,0.4319,0.4853,0.4909,0.4911,0.4913,0.4915,0.4917,0,0.3448,0.3483,0.3542,0.3587,0.3587,0.3677,0.3773,0.374,0.3775,0.397,0.4084,0.4279,0.4385,0.4551,0.4598,0.445,0.4226,0.4357,0.4026,0.3938,0.4502,0.4374,0.4229,0.4229,0.4229,0.423,0.423,0.423,0.3387,0.3377,0.3405,0.3362,0.3385,0.3305,0.3306,0.3302,0.3396,0.3461,0.3539,0.3703,0.4115,0.4345,0.4278,0.4166,0.3844,0.3673,0.3679,0.4115,0.415,0.4185,0.4053,0.3843,0.3843,0.2919,0.2913,0.2908]},{"header":{"parameterUnit":"m.s-1","parameterCategory":2,"la1":30.2991,"la2":30.254,"lo1":-89.0895,"lo2":-89.0444,"dy":0.0017,"dx":0.0017,"nx":28,"ny":28,"refTime":"2025-02-25T03:00:00:Z","depth":"0","parameterNumber":3,"parameterNumberName":"V-component_of_CURRENTS"},"data":[0,0,0,0,0,0,0,0,0,0,0,0,0,0,0,0,0,0,0,0,0,0,0,0,0,0,0,0,0,0,0,0,0,0,0,0,0,0,0,0,0,0,0,0,0,0,0,0,0,0,0,0,0,0,0,0,0,0,-0.0071,-0.0072,0,-0.0157,-0.0158,-0.0159,-0.0217,-0.0217,-0.0217,-0.0217,-0.0348,-0.0351,-0.0354,0,0,0,0,0,0,0,0,0,0,0,0,0,-0.0021,-0.0022,-0.0071,-0.0072,-0.0073,-0.0157,-0.0158,-0.0159,-0.0217,-0.0217,-0.0217,-0.0217,-0.0347,-0.0351,-0.0354,0,0,0,0,0,0,0,0,0,0,0,0,0,-0.007,-0.0022,-0.0071,-0.011,-0.0114,-0.0156,-0.0158,-0.016,-0.0217,-0.0217,-0.0217,-0.0218,-0.0345,-0.035,-0.0355,-0.0379,0,0,-0.037,-0.0372,0,0,0,0,0,0,0,0,-0.0067,-0.0072,-0.0103,-0.0107,-0.0112,-0.0174,-0.0188,-0.0235,-0.0217,-0.018,-0.0217,-0.0218,-0.0292,-0.0302,-0.032,-0.0386,-0.0391,-0.0371,-0.0374,-0.0376,-0.0377,0,0,0,0,0,0,0,-0.0064,-0.0069,-0.0107,-0.0104,-0.0109,-0.0145,-0.0152,-0.0198,-0.0236,-0.0183,-0.0187,-0.0193,-0.0295,-0.0315,-0.0323,-0.0393,-0.037,-0.0375,-0.0378,-0.038,-0.0523,-0.0524,0,0,0,0,0,0,-0.0045,-0.0066,-0.0104,-0.0109,-0.0088,-0.0145,-0.0153,-0.0156,-0.0235,-0.0246,-0.0193,-0.0195,-0.0306,-0.0317,-0.0328,-0.037,-0.0376,-0.038,-0.0383,-0.0522,-0.0523,-0.0524,0,0,0,0,0,0,-0.0044,-0.0048,-0.0101,-0.0088,-0.0097,-0.0145,-0.0148,-0.0157,-0.0173,-0.0241,-0.0254,-0.0198,-0.0307,-0.0321,-0.0363,-0.0375,-0.0382,-0.0387,-0.0521,-0.0523,-0.0524,-0.0448,0,0,0,0,0,0,-0.0042,-0.0047,-0.0042,-0.0087,-0.0097,-0.0115,-0.0148,-0.0159,-0.0176,-0.018,-0.025,-0.0263,-0.0308,-0.0356,-0.0368,-0.0382,-0.0391,-0.052,-0.0522,-0.0523,-0.045,-0.0447,-0.0444,0,0,0,0,0,-0.004,-0.0029,-0.0042,-0.0046,-0.0089,-0.0115,-0.0123,-0.0161,-0.0175,-0.0177,-0.0226,-0.026,-0.0376,-0.036,-0.0374,-0.039,-0.0519,-0.0521,-0.0523,-0.0451,-0.0447,-0.0444,0,0,0,0,0,0,-0.0008,-0.0035,-0.005,-0.0049,-0.0075,-0.0123,-0.0127,-0.0153,-0.0193,-0.0197,-0.0261,-0.0277,-0.0322,-0.0367,-0.0348,-0.0439,-0.0458,-0.0463,-0.0398,-0.0395,-0.0392,-0.036,-0.0395,0,0,0,0,0,0.0003,0.0005,-0.003,-0.0029,-0.0037,-0.008,-0.0095,-0.0119,-0.0159,-0.0177,-0.0226,-0.0286,-0.0343,-0.0374,-0.0425,-0.0468,-0.0491,-0.0494,-0.0491,-0.0488,-0.0474,-0.0527,-0.0527,-0.0531,-0.0531,-0.053,0,0,0.0015,0.0001,0.0001,-0.0022,-0.0045,-0.0053,-0.009,-0.0104,-0.0119,-0.0185,-0.0217,-0.0271,-0.0351,-0.0399,-0.0425,-0.0438,-0.0496,-0.0491,-0.0487,-0.0475,-0.0529,-0.0529,-0.0528,-0.0532,-0.0532,-0.0531,0,0,0.0043,0.003,0.0042,0.0026,0.0001,-0.0027,-0.0025,-0.0068,-0.0093,-0.0128,-0.0186,-0.0238,-0.032,-0.0379,-0.0421,-0.0436,-0.0475,-0.0464,-0.0429,-0.0481,-0.048,-0.048,-0.0481,-0.0482,-0.0469,-0.0469,-0.0469,0,0.0057,0.0066,0.004,0.0045,0.0038,-0.0009,-0.0001,-0.0037,-0.009,-0.0107,-0.0128,-0.0246,-0.0311,-0.0379,-0.039,-0.0428,-0.0446,-0.0429,-0.0474,-0.0474,-0.0475,-0.0478,-0.0479,-0.0465,-0.0466,-0.0466,-0.0466,0,0.0091,0.0096,0.0103,0.0094,0.0083,0.0083,0.0039,0.002,-0.0014,-0.0054,-0.0112,-0.0196,-0.0264,-0.0307,-0.0355,-0.0406,-0.0409,-0.0455,-0.0471,-0.047,-0.0473,-0.0475,-0.046,-0.0462,-0.0463,-0.0464,0,0,0.0128,0.0128,0.013,0.0141,0.0112,0.011,0.0089,0.0058,0.0056,-0.0016,-0.0029,-0.0146,-0.0184,-0.0234,-0.0307,-0.0361,-0.0384,-0.0406,-0.041,-0.0386,-0.0459,-0.0424,-0.0423,-0.0438,-0.0439,-0.044,-0.0447,0,0.0162,0.0194,0.0176,0.0199,0.0215,0.0173,0.0164,0.0128,0.009,0.0066,-0.0035,-0.0077,-0.0162,-0.0185,-0.0256,-0.0345,-0.0393,-0.0375,-0.0482,-0.0484,-0.0437,-0.0427,-0.0395,-0.0396,-0.045,-0.045,-0.0451,0,0.0203,0.0221,0.0257,0.027,0.0273,0.0274,0.0269,0.0252,0.0196,0.0168,0.0103,0.0037,-0.0048,-0.0121,-0.0265,-0.0247,-0.0344,-0.0419,-0.0423,-0.0417,-0.0456,-0.0416,-0.04,-0.0603,-0.0456,-0.0455,-0.0455,0,0.0259,0.0278,0.0313,0.0316,0.0318,0.0326,0.0319,0.0285,0.0303,0.0237,0.0256,0.0129,0.01,-0.0053,-0.0195,-0.0235,-0.0332,-0.0412,-0.047,-0.0467,-0.0473,-0.0469,-0.0649,-0.052,-0.052,-0.052,-0.052,0,0.0308,0.0337,0.0346,0.0367,0.0424,0.039,0.044,0.0414,0.041,0.0457,0.0318,0.0351,0.0114,0.0035,-0.0139,-0.0275,-0.0289,-0.0444,-0.047,-0.0443,-0.0437,-0.0642,-0.0777,-0.0521,-0.0521,-0.0521,-0.0521,0,0.0369,0.0369,0.0418,0.0437,0.0457,0.0493,0.0547,0.0584,0.0559,0.0623,0.0617,0.0534,0.0441,0.0228,0.0015,-0.0164,-0.0435,-0.0382,-0.0301,-0.0319,-0.0581,-0.0712,-0.0912,-0.0999,-0.0455,-0.0454,-0.0454,0,0.0402,0.0435,0.049,0.0542,0.0556,0.0613,0.0666,0.0662,0.0727,0.0761,0.0819,0.0749,0.076,0.0482,0.015,-0.012,-0.0365,-0.0308,-0.0404,-0.0573,-0.0741,-0.0846,-0.0913,-0.0375,-0.0374,-0.0373,-0.0372,0,0.0474,0.049,0.0539,0.065,0.0716,0.0805,0.0886,0.0976,0.0992,0.1081,0.1204,0.1222,0.095,0.072,0.0313,0.0077,-0.0452,-0.0295,-0.0518,-0.0723,-0.0804,-0.0905,-0.0364,-0.0363,-0.0364,-0.0365,-0.0365,-0.0365,0.0536,0.0589,0.0662,0.0774,0.0863,0.1003,0.1107,0.1228,0.1394,0.1557,0.1536,0.1629,0.1204,0.068,0.0321,-0.0329,-0.0376,-0.0544,-0.0691,-0.0781,-0.0873,-0.0275,-0.0283,-0.0283,-0.0283,-0.0284,-0.0284,0,0.0625,0.0689,0.0789,0.0926,0.1053,0.1078,0.1266,0.1398,0.1643,0.1813,0.1954,0.1851,0.1323,0.0713,-0.0145,-0.0627,-0.085,-0.0914,-0.1094,-0.1147,-0.0649,-0.0654,-0.0684,-0.0684,-0.0684,-0.0683,-0.0683,-0.0683,0.0674,0.079,0.0845,0.1075,0.1179,0.1367,0.1491,0.1705,0.1884,0.2162,0.2271,0.2308,0.1873,0.0277,-0.0791,-0.1057,-0.1437,-0.1514,-0.1695,-0.14,-0.1378,-0.1358,-0.1395,-0.1579,-0.158,-0.2119,-0.2125,-0.2129]}],[{"header":{"parameterUnit":"m.s-1","parameterCategory":2,"la1":30.2991,"la2":30.254,"lo1":-89.0895,"lo2":-89.0444,"dy":0.0017,"dx":0.0017,"nx":28,"ny":28,"refTime":"2025-02-25T03:00:00:Z","depth":"2","parameterNumber":2,"parameterNumberName":"U-component_of_CURRENTS"},"data":[0,0,0,0,0,0,0,0,0,0,0,0,0,0,0,0,0,0,0,0,0,0,0,0,0,0,0,0,0,0,0,0,0,0,0,0,0,0,0,0,0,0,0,0,0,0,0,0,0,0,0,0,0,0,0,0,0,0,0.3004,0.3004,0,0.3036,0.3037,0.3037,0.3036,0.3035,0.3035,0.3035,0.3042,0.3042,0.3043,0,0,0,0,0,0,0,0,0,0,0,0,0,0.2938,0.2939,0.3004,0.3004,0.3005,0.3036,0.3037,0.3037,0.3036,0.3035,0.3035,0.3035,0.3042,0.3042,0.3043,0,0,0,0,0,0,0,0,0,0,0,0,0,0.2966,0.2939,0.3003,0.3009,0.301,0.3036,0.3037,0.3037,0.3036,0.3035,0.3035,0.3034,0.3041,0.3042,0.3043,0.3055,0,0,0.3045,0.3045,0,0,0,0,0,0,0,0,0.2965,0.2968,0.3008,0.3009,0.301,0.3033,0.3016,0.3042,0.3036,0.3024,0.3035,0.3034,0.3038,0.3039,0.3044,0.3055,0.3056,0.3045,0.3045,0.3046,0.3046,0,0,0,0,0,0,0,0.2963,0.2967,0.3014,0.3009,0.301,0.301,0.3013,0.3021,0.3031,0.3025,0.3025,0.3033,0.3038,0.3043,0.3044,0.3056,0.3045,0.3045,0.3046,0.3046,0.313,0.3132,0,0,0,0,0,0,0.2964,0.2965,0.3013,0.3016,0.2988,0.3012,0.3015,0.3025,0.3031,0.3033,0.3033,0.3032,0.3042,0.3043,0.3044,0.3109,0.3046,0.3046,0.3047,0.3128,0.3131,0.3132,0,0,0,0,0,0,0.2962,0.2968,0.3012,0.2993,0.2998,0.3014,0.3024,0.3026,0.3042,0.3038,0.3038,0.3049,0.3042,0.3043,0.3068,0.3107,0.3046,0.3047,0.3126,0.3129,0.3132,0.3206,0,0,0,0,0,0,0.296,0.2967,0.2977,0.2993,0.3,0.304,0.3025,0.3027,0.3047,0.3047,0.3052,0.3051,0.3042,0.3068,0.3069,0.3107,0.3048,0.3124,0.3127,0.3131,0.3202,0.3211,0.322,0,0,0,0,0,0.2958,0.2972,0.2978,0.2984,0.3012,0.3041,0.3045,0.3052,0.3048,0.3063,0.3069,0.3052,0.3091,0.307,0.3071,0.311,0.3122,0.3126,0.313,0.3198,0.321,0.322,0,0,0,0,0,0,0.2947,0.2974,0.298,0.3002,0.3026,0.3042,0.3058,0.3063,0.3079,0.3082,0.3071,0.3072,0.3114,0.3101,0.3078,0.3145,0.3106,0.311,0.3156,0.3167,0.3176,0.3196,0.3048,0,0,0,0,0,0.2951,0.297,0.2996,0.3015,0.303,0.3047,0.3061,0.3071,0.3086,0.3093,0.3097,0.3107,0.3131,0.3139,0.3153,0.3184,0.3197,0.3212,0.3221,0.3229,0.3247,0.3304,0.332,0.3146,0.3146,0.3146,0,0,0.2951,0.297,0.298,0.3015,0.3034,0.3063,0.3054,0.3086,0.3114,0.3091,0.313,0.3141,0.3148,0.3189,0.3206,0.3182,0.3285,0.3234,0.324,0.3254,0.331,0.3327,0.3342,0.3149,0.3148,0.3148,0,0,0.2962,0.2982,0.3003,0.3029,0.3067,0.3083,0.3097,0.3126,0.3144,0.318,0.3183,0.3222,0.3236,0.3264,0.3275,0.3343,0.3335,0.3344,0.3401,0.3457,0.3471,0.3485,0.3522,0.3538,0.3343,0.3343,0.3343,0,0.2961,0.2991,0.3014,0.3045,0.3072,0.3095,0.3128,0.3155,0.3189,0.3219,0.3201,0.3273,0.3278,0.3349,0.3376,0.3367,0.3387,0.3357,0.3469,0.3483,0.3495,0.353,0.3547,0.3347,0.3347,0.3346,0.3346,0,0.2987,0.3017,0.3035,0.3082,0.3116,0.315,0.3193,0.3231,0.3252,0.3281,0.3355,0.3372,0.3418,0.3429,0.3422,0.3519,0.3503,0.3478,0.3441,0.3517,0.3549,0.3565,0.3353,0.3352,0.3351,0.335,0,0,0.2965,0.3037,0.3043,0.307,0.314,0.3164,0.3234,0.33,0.3352,0.339,0.3462,0.3515,0.3536,0.3552,0.356,0.3608,0.3712,0.3584,0.3585,0.3622,0.3831,0.3785,0.3798,0.3706,0.371,0.3712,0.3818,0,0.2977,0.3028,0.3072,0.3128,0.3159,0.3219,0.3285,0.3353,0.3406,0.3482,0.3532,0.3602,0.3579,0.3616,0.3665,0.3712,0.3758,0.3685,0.3752,0.3754,0.3705,0.3817,0.352,0.3587,0.3833,0.3836,0.3838,0,0.2983,0.3019,0.3072,0.3156,0.3179,0.3222,0.3331,0.339,0.3512,0.3568,0.3651,0.369,0.3796,0.3749,0.3871,0.3827,0.3842,0.3859,0.3863,0.3808,0.374,0.3552,0.3607,0.3864,0.3862,0.386,0.3858,0,0.2938,0.3017,0.3055,0.3083,0.3185,0.3231,0.3292,0.3413,0.3493,0.363,0.3697,0.3813,0.3885,0.3936,0.398,0.394,0.4095,0.4036,0.4005,0.4001,0.3757,0.3726,0.4116,0.4116,0.4115,0.4115,0.4115,0,0.2924,0.2952,0.3035,0.3052,0.3123,0.3205,0.33,0.3389,0.3539,0.3627,0.3732,0.3821,0.3938,0.4026,0.4037,0.4091,0.4145,0.4052,0.4043,0.3774,0.3745,0.3982,0.3965,0.4119,0.4118,0.4117,0.4117,0,0.2865,0.2917,0.2962,0.3061,0.3099,0.3144,0.33,0.3361,0.3518,0.3637,0.3692,0.3881,0.4002,0.4087,0.4198,0.4169,0.4216,0.4205,0.3883,0.3836,0.4064,0.405,0.4197,0.4197,0.4197,0.4196,0.4196,0,0.2837,0.2853,0.2946,0.2969,0.3012,0.31,0.316,0.3336,0.3412,0.3644,0.3687,0.3881,0.3976,0.4148,0.4165,0.4213,0.4238,0.3937,0.381,0.4106,0.4082,0.4068,0.4055,0.3508,0.3502,0.3497,0.3493,0,0.2777,0.2811,0.2841,0.29,0.2948,0.3012,0.3111,0.3179,0.3365,0.3481,0.3632,0.3742,0.3934,0.3889,0.3987,0.3956,0.3913,0.3844,0.4254,0.3543,0.3467,0.344,0.3447,0.3451,0.3455,0.3458,0.3461,0.3462,0.2723,0.2728,0.2768,0.2812,0.2862,0.2891,0.29,0.3012,0.3121,0.3245,0.3446,0.3505,0.3617,0.3634,0.3556,0.3505,0.3761,0.3573,0.3582,0.3598,0.351,0.3439,0.34,0.3403,0.3407,0.341,0.3412,0,0.2639,0.2651,0.2679,0.2708,0.2697,0.2778,0.2835,0.2813,0.2854,0.3016,0.3133,0.2973,0.2999,0.3086,0.2969,0.301,0.2926,0.2867,0.2713,0.2762,0.2803,0.2666,0.2337,0.2333,0.2329,0.2325,0,0,0.2593,0.2568,0.2577,0.2526,0.2546,0.2491,0.2483,0.2481,0.2555,0.2562,0.2593,0.2862,0.3015,0.2616,0.2605,0.2439,0.2559,0.2349,0.3228,0.3096,0.3131,0.3252,0.3104,0,0,0,0,0]},{"header":{"parameterUnit":"m.s-1","parameterCategory":2,"la1":30.2991,"la2":30.254,"lo1":-89.0895,"lo2":-89.0444,"dy":0.0017,"dx":0.0017,"nx":28,"ny":28,"refTime":"2025-02-25T03:00:00:Z","depth":"2","parameterNumber":3,"parameterNumberName":"V-component_of_CURRENTS"},"data":[0,0,0,0,0,0,0,0,0,0,0,0,0,0,0,0,0,0,0,0,0,0,0,0,0,0,0,0,0,0,0,0,0,0,0,0,0,0,0,0,0,0,0,0,0,0,0,0,0,0,0,0,0,0,0,0,0,0,0.01,0.0099,0,0.0017,0.0016,0.0015,-0.0039,-0.0039,-0.0039,-0.004,-0.0127,-0.0129,-0.0131,0,0,0,0,0,0,0,0,0,0,0,0,0,0.0153,0.0152,0.01,0.0099,0.0098,0.0017,0.0016,0.0015,-0.0039,-0.0039,-0.0039,-0.004,-0.0127,-0.0129,-0.0132,0,0,0,0,0,0,0,0,0,0,0,0,0,0.0105,0.0152,0.01,0.0063,0.0059,0.0018,0.0016,0.0014,-0.0039,-0.0039,-0.0039,-0.004,-0.0126,-0.0129,-0.0132,-0.0146,0,0,-0.0142,-0.0143,0,0,0,0,0,0,0,0,0.0108,0.0103,0.0069,0.0065,0.0061,0.0,0.0002,-0.0039,-0.0039,-0.0003,-0.004,-0.004,-0.0084,-0.0091,-0.0107,-0.015,-0.0153,-0.0142,-0.0144,-0.0145,-0.0146,0,0,0,0,0,0,0,0.0111,0.0106,0.0066,0.0068,0.0063,0.003,0.0023,-0.0006,-0.0042,-0.0006,-0.001,-0.0017,-0.0086,-0.0104,-0.011,-0.0155,-0.0142,-0.0145,-0.0147,-0.0148,-0.0205,-0.0205,0,0,0,0,0,0,0.0128,0.0109,0.0068,0.0063,0.0085,0.003,0.0022,0.0019,-0.0042,-0.0051,-0.0017,-0.0019,-0.0099,-0.0106,-0.0113,-0.0113,-0.0145,-0.0148,-0.015,-0.0206,-0.0205,-0.0205,0,0,0,0,0,0,0.0129,0.0125,0.0072,0.0085,0.0076,0.003,0.0026,0.0017,0.0003,-0.0049,-0.0059,-0.0022,-0.0099,-0.0109,-0.0133,-0.0118,-0.015,-0.0153,-0.0206,-0.0205,-0.0205,-0.0126,0,0,0,0,0,0,0.0131,0.0126,0.013,0.0087,0.0076,0.0058,0.0026,0.0016,-0.0001,-0.0005,-0.0057,-0.0066,-0.01,-0.0128,-0.0137,-0.0123,-0.0155,-0.0207,-0.0206,-0.0205,-0.013,-0.0123,-0.0118,0,0,0,0,0,0.0133,0.0144,0.0131,0.0126,0.0083,0.0059,0.005,0.0014,-0.0,-0.0001,-0.0038,-0.0064,-0.0129,-0.0131,-0.014,-0.0127,-0.0207,-0.0206,-0.0205,-0.0132,-0.0124,-0.0118,0,0,0,0,0,0,0.0168,0.0138,0.0123,0.0124,0.0098,0.005,0.0046,0.0022,-0.0009,-0.0011,-0.0061,-0.0072,-0.0089,-0.0119,-0.012,-0.0142,-0.0171,-0.0172,-0.0113,-0.0106,-0.01,-0.0076,-0.0158,0,0,0,0,0,0.0178,0.0179,0.0143,0.0144,0.0135,0.0092,0.0078,0.0055,0.0022,0.0008,-0.0029,-0.0065,-0.0094,-0.0108,-0.014,-0.0151,-0.0183,-0.0149,-0.0143,-0.0138,-0.0125,-0.0162,-0.0158,-0.0202,-0.0202,-0.0202,0,0,0.0192,0.0176,0.0176,0.0152,0.0128,0.0129,0.0083,0.0069,0.0072,0.0004,-0.0004,-0.0048,-0.0094,-0.0108,-0.0117,-0.0129,-0.0143,-0.0137,-0.0132,-0.0122,-0.0161,-0.0157,-0.0153,-0.0201,-0.0201,-0.0201,0,0,0.0226,0.0207,0.0222,0.0206,0.0181,0.0157,0.0158,0.0117,0.0102,0.0083,0.0039,0.0008,-0.004,-0.0065,-0.0085,-0.0066,-0.0113,-0.0078,-0.0026,-0.0061,-0.0058,-0.0055,-0.009,-0.0091,-0.0072,-0.0072,-0.0072,0,0.0243,0.0259,0.0222,0.0233,0.0232,0.0178,0.0198,0.0173,0.013,0.0127,0.0093,0.0027,-0.0017,-0.0025,-0.0023,-0.005,-0.0081,-0.0047,-0.0053,-0.0051,-0.0049,-0.0086,-0.0088,-0.0068,-0.0068,-0.0069,-0.0069,0,0.0288,0.0301,0.0309,0.031,0.0302,0.0308,0.0276,0.0268,0.0238,0.0209,0.0184,0.0116,0.0081,0.0058,0.002,0.0015,-0.0014,-0.0043,-0.0066,-0.004,-0.008,-0.0084,-0.0062,-0.0064,-0.0065,-0.0066,0,0,0.0331,0.0342,0.0345,0.037,0.0347,0.0352,0.0358,0.0353,0.0371,0.0305,0.0316,0.0245,0.02,0.0174,0.012,0.0083,0.0057,0.003,0.0026,0.0004,-0.0023,-0.0051,-0.0059,0.0024,0.0024,0.0024,-0.0055,0,0.0381,0.0432,0.0417,0.047,0.0498,0.0461,0.0474,0.0458,0.0435,0.0428,0.0349,0.033,0.0248,0.0233,0.0181,0.0091,0.0051,0.0081,-0.0052,-0.0056,-0.0078,-0.0062,-0.0035,-0.0104,-0.0059,-0.0059,-0.006,0,0.0435,0.0466,0.0526,0.0568,0.0576,0.0592,0.0618,0.0625,0.0594,0.0575,0.0532,0.0463,0.04,0.0324,0.0184,0.0205,0.0103,0.0023,0.0017,-0.0036,-0.009,-0.0125,-0.0113,-0.0067,-0.0066,-0.0066,-0.0065,0,0.0498,0.0548,0.0606,0.0616,0.0641,0.0665,0.0678,0.0669,0.0703,0.0673,0.0684,0.0581,0.0542,0.0398,0.022,0.0203,0.006,0.0017,-0.0105,-0.0109,-0.0124,-0.0129,-0.0077,-0.0077,-0.0077,-0.0077,-0.0077,0,0.0564,0.0612,0.0642,0.0673,0.0752,0.0738,0.0815,0.0811,0.0826,0.0876,0.0766,0.0778,0.0559,0.0443,0.0265,0.0073,0.0092,-0.0089,-0.0128,-0.0097,-0.0098,-0.0097,-0.0098,-0.008,-0.0079,-0.0079,-0.0078,0,0.0625,0.0638,0.0714,0.076,0.0784,0.0839,0.0917,0.0975,0.0968,0.1032,0.1027,0.0932,0.078,0.0551,0.0322,0.015,-0.0042,-0.0116,-0.0066,-0.0098,-0.02,-0.0196,-0.0256,-0.0257,-0.0259,-0.026,-0.0261,0,0.066,0.0703,0.0785,0.0839,0.0865,0.0949,0.1011,0.1044,0.1118,0.1133,0.1174,0.1049,0.0983,0.0632,0.0308,-0.0002,-0.0044,-0.0185,-0.0216,-0.0184,-0.0217,-0.0211,-0.0206,-0.0209,-0.021,-0.021,-0.0211,0,0.0731,0.0753,0.0816,0.0929,0.1009,0.1117,0.1211,0.1292,0.1331,0.1378,0.1413,0.1359,0.1027,0.0722,0.0289,0.0073,-0.0138,-0.0202,-0.0177,-0.0166,-0.0147,-0.0177,-0.0172,-0.0214,-0.0214,-0.0213,-0.0213,-0.0213,0.0781,0.0838,0.0917,0.1028,0.1127,0.1259,0.1359,0.1463,0.1579,0.1648,0.1595,0.152,0.1168,0.0623,0.0244,-0.0162,-0.0145,-0.0288,-0.0285,-0.0281,-0.0259,-0.0243,-0.0324,-0.0324,-0.0325,-0.0325,-0.0325,0,0.0843,0.0908,0.1013,0.1142,0.126,0.1305,0.1474,0.157,0.1708,0.1764,0.1785,0.1454,0.1102,0.0689,0.0095,-0.0255,-0.0285,-0.0374,-0.0325,-0.0319,-0.0314,-0.0293,-0.0368,-0.0369,-0.037,-0.0371,0,0,0.0875,0.0979,0.1032,0.1225,0.1322,0.1487,0.1587,0.1719,0.1801,0.1856,0.1818,0.1736,0.1233,0.0805,0.0322,-0.0021,-0.0093,-0.0099,-0.0027,0.0094,0.0103,-0.0229,-0.0185,0,0,0,0,0]}],[{"header":{"parameterUnit":"m.s-1","parameterCategory":2,"la1":30.2991,"la2":30.254,"lo1":-89.0895,"lo2":-89.0444,"dy":0.0017,"dx":0.0017,"nx":28,"ny":28,"refTime":"2025-02-25T03:00:00:Z","depth":"4","parameterNumber":2,"parameterNumberName":"U-component_of_CURRENTS"},"data":[0,0,0,0,0,0,0,0,0,0,0,0,0,0,0,0,0,0,0,0,0,0,0,0,0,0,0,0,0,0,0,0,0,0,0,0,0,0,0,0,0,0,0,0,0,0,0,0,0,0,0,0,0,0,0,0,0,0,0.2015,0.2016,0,0.2098,0.2098,0.2099,0.2166,0.2167,0.2168,0.2169,0.2241,0.2242,0.2243,0,0,0,0,0,0,0,0,0,0,0,0,0,0.1905,0.1907,0.2015,0.2016,0.2017,0.2098,0.2098,0.2099,0.2166,0.2167,0.2168,0.2169,0.224,0.2242,0.2243,0,0,0,0,0,0,0,0,0,0,0,0,0,0.1965,0.1907,0.2015,0.2062,0.2067,0.2097,0.2099,0.21,0.2166,0.2167,0.2168,0.217,0.224,0.2242,0.2243,0.2228,0,0,0.2248,0.2249,0,0,0,0,0,0,0,0,0.1962,0.1969,0.2054,0.2058,0.2064,0.2125,0.2087,0.2143,0.2165,0.2126,0.2169,0.217,0.2201,0.2206,0.2216,0.2231,0.2234,0.2248,0.2249,0.225,0.2251,0,0,0,0,0,0,0,0.1957,0.1966,0.2046,0.2055,0.2061,0.2076,0.2085,0.2097,0.2154,0.213,0.2135,0.2147,0.2204,0.2214,0.2218,0.2235,0.2248,0.225,0.2251,0.2252,0.2351,0.2352,0,0,0,0,0,0,0.195,0.1962,0.2043,0.2048,0.2017,0.2077,0.2088,0.2102,0.2154,0.2164,0.2146,0.215,0.2211,0.2216,0.2221,0.2308,0.225,0.2252,0.2253,0.2349,0.2351,0.2353,0,0,0,0,0,0,0.1948,0.1957,0.204,0.2008,0.202,0.2077,0.2093,0.2103,0.2158,0.2167,0.2176,0.2196,0.2212,0.2219,0.2273,0.2308,0.2253,0.2254,0.2347,0.235,0.2352,0.2417,0,0,0,0,0,0,0.1944,0.1955,0.1984,0.2008,0.2022,0.2086,0.2093,0.2104,0.2162,0.2169,0.2212,0.2217,0.2214,0.2271,0.2275,0.2309,0.2255,0.2345,0.2348,0.2351,0.2412,0.2421,0.2428,0,0,0,0,0,0.194,0.1966,0.1985,0.1996,0.2053,0.2088,0.2097,0.2139,0.2163,0.2193,0.2226,0.2218,0.2293,0.2273,0.2278,0.2313,0.2344,0.2347,0.2351,0.2409,0.2419,0.2428,0,0,0,0,0,0,0.1935,0.1976,0.1997,0.2037,0.2074,0.2101,0.2139,0.2163,0.2213,0.2234,0.224,0.2248,0.2308,0.2302,0.2281,0.2351,0.2316,0.2321,0.2359,0.2369,0.2376,0.2383,0.2257,0,0,0,0,0,0.1945,0.1981,0.2015,0.2053,0.2075,0.2115,0.2144,0.2174,0.221,0.2236,0.2265,0.2294,0.2318,0.2339,0.2358,0.2396,0.2403,0.2422,0.243,0.2437,0.2446,0.2487,0.25,0.2365,0.2365,0.2365,0,0,0.1955,0.1984,0.2006,0.2056,0.2092,0.2125,0.2138,0.2195,0.2232,0.2233,0.2307,0.2328,0.2336,0.2382,0.2407,0.2388,0.2481,0.2441,0.2447,0.2452,0.2492,0.2505,0.2517,0.2367,0.2367,0.2366,0,0,0.1972,0.2019,0.2048,0.2083,0.2144,0.2165,0.2191,0.2243,0.2284,0.2343,0.2356,0.2403,0.2441,0.2455,0.2462,0.2525,0.2523,0.2536,0.2581,0.2621,0.2633,0.2643,0.2675,0.2687,0.2537,0.2537,0.2537,0,0.1985,0.2023,0.2064,0.2098,0.2133,0.2186,0.2221,0.2264,0.2331,0.2364,0.2379,0.2459,0.2472,0.2518,0.2545,0.2544,0.2567,0.2542,0.2632,0.2642,0.2651,0.2681,0.2694,0.2541,0.254,0.254,0.254,0,0.2007,0.2055,0.208,0.2138,0.218,0.2226,0.228,0.2337,0.2391,0.2426,0.2509,0.2538,0.2584,0.2595,0.2592,0.2664,0.266,0.2639,0.2607,0.2669,0.2696,0.2708,0.2546,0.2545,0.2544,0.2543,0,0,0.1984,0.2075,0.2089,0.2123,0.2209,0.2237,0.2312,0.2378,0.2436,0.2507,0.2578,0.2629,0.2664,0.2676,0.2689,0.2726,0.2813,0.2721,0.2721,0.2751,0.2912,0.2752,0.2749,0.2816,0.2818,0.282,0.2907,0,0.1992,0.2051,0.2101,0.2169,0.2203,0.2278,0.2337,0.241,0.2485,0.2569,0.2621,0.2697,0.2688,0.2735,0.2772,0.2809,0.2848,0.2792,0.2848,0.285,0.2699,0.2759,0.2828,0.2916,0.2919,0.2921,0.2922,0,0.1986,0.2031,0.2093,0.2183,0.2208,0.2262,0.2372,0.2437,0.2555,0.262,0.2707,0.2759,0.2846,0.2829,0.2923,0.2894,0.2915,0.2931,0.2934,0.2769,0.2712,0.284,0.2944,0.2942,0.294,0.2939,0.2938,0,0.1925,0.202,0.2071,0.2104,0.2213,0.2269,0.2339,0.2457,0.2528,0.2676,0.2746,0.2843,0.292,0.2964,0.3012,0.2985,0.3105,0.3061,0.2933,0.2922,0.3012,0.3,0.3124,0.3123,0.3123,0.3123,0.3123,0,0.1889,0.1935,0.2056,0.2083,0.2156,0.225,0.235,0.2437,0.2578,0.2657,0.2781,0.2852,0.2963,0.3038,0.3054,0.3035,0.3141,0.2953,0.2935,0.3037,0.3027,0.3021,0.3007,0.3126,0.3126,0.3125,0.3124,0,0.1809,0.1889,0.1955,0.2083,0.213,0.2188,0.235,0.2413,0.2566,0.2681,0.2738,0.2896,0.2991,0.3074,0.3161,0.3074,0.308,0.3047,0.3173,0.316,0.286,0.2849,0.2897,0.2892,0.2887,0.2884,0.2881,0,0.1768,0.1796,0.194,0.1982,0.2051,0.2158,0.2226,0.2392,0.2461,0.2676,0.2708,0.2875,0.2957,0.2949,0.3048,0.3073,0.3036,0.3011,0.2906,0.2859,0.2838,0.2834,0.283,0.2875,0.2873,0.2872,0.2871,0,0.1686,0.1758,0.1812,0.1906,0.1987,0.2058,0.2174,0.2209,0.2392,0.2553,0.2621,0.2679,0.2784,0.2844,0.2896,0.2901,0.3006,0.2966,0.2973,0.2874,0.2832,0.2815,0.2816,0.2857,0.2859,0.286,0.2861,0,0.1633,0.1651,0.1739,0.1803,0.1896,0.1927,0.2003,0.2081,0.217,0.24,0.242,0.2595,0.2754,0.2758,0.2802,0.2805,0.275,0.2636,0.2659,0.2676,0.2564,0.2476,0.2385,0,0,0,0,0,0.1567,0.1573,0.1625,0.1682,0.1767,0.1822,0.1949,0.2028,0.2205,0.2194,0.2301,0.2388,0.2461,0.2555,0.2513,0.2708,0.2762,0.2647,0.2643,0.2777,0.2794,0.2681,0,0,0,0,0,0,0.1521,0.1568,0.1581,0.1567,0.1585,0.166,0.1732,0.185,0.1854,0.2044,0.21,0.2246,0.2358,0.2466,0.247,0.2498,0.2446,0.2764,0.2757,0.2768,0.2783,0.2796,0.2686,0,0,0,0,0]},{"header":{"parameterUnit":"m.s-1","parameterCategory":2,"la1":30.2991,"la2":30.254,"lo1":-89.0895,"lo2":-89.0444,"dy":0.0017,"dx":0.0017,"nx":28,"ny":28,"refTime":"2025-02-25T03:00:00:Z","depth":"4","parameterNumber":3,"parameterNumberName":"V-component_of_CURRENTS"},"data":[0,0,0,0,0,0,0,0,0,0,0,0,0,0,0,0,0,0,0,0,0,0,0,0,0,0,0,0,0,0,0,0,0,0,0,0,0,0,0,0,0,0,0,0,0,0,0,0,0,0,0,0,0,0,0,0,0,0,0.0112,0.0111,0,0.0054,0.0054,0.0053,0.0015,0.0015,0.0015,0.0015,-0.0041,-0.0042,-0.0043,0,0,0,0,0,0,0,0,0,0,0,0,0,0.0147,0.0147,0.0112,0.0111,0.0111,0.0055,0.0054,0.0053,0.0015,0.0015,0.0015,0.0014,-0.004,-0.0042,-0.0043,0,0,0,0,0,0,0,0,0,0,0,0,0,0.0114,0.0147,0.0112,0.0086,0.0083,0.0055,0.0054,0.0053,0.0015,0.0015,0.0015,0.0014,-0.004,-0.0042,-0.0043,-0.0051,0,0,-0.0049,-0.005,0,0,0,0,0,0,0,0,0.0116,0.0113,0.009,0.0088,0.0084,0.0043,0.0046,0.0018,0.0015,0.004,0.0015,0.0014,-0.0012,-0.0016,-0.0028,-0.0053,-0.0056,-0.005,-0.0051,-0.0052,-0.0052,0,0,0,0,0,0,0,0.0118,0.0115,0.0088,0.009,0.0086,0.0063,0.0058,0.004,0.0015,0.0038,0.0035,0.003,-0.0013,-0.0026,-0.0029,-0.0057,-0.005,-0.0051,-0.0053,-0.0053,-0.0077,-0.0077,0,0,0,0,0,0,0.013,0.0117,0.009,0.0087,0.0101,0.0062,0.0057,0.0055,0.0015,0.0009,0.0031,0.0029,-0.0022,-0.0027,-0.0031,-0.0019,-0.0052,-0.0054,-0.0055,-0.0078,-0.0077,-0.0077,0,0,0,0,0,0,0.0131,0.0128,0.0092,0.0101,0.0095,0.0062,0.0061,0.0054,0.0045,0.001,0.0004,0.0028,-0.0023,-0.0029,-0.0042,-0.0022,-0.0054,-0.0056,-0.0079,-0.0078,-0.0077,-0.0009,0,0,0,0,0,0,0.0132,0.0129,0.0133,0.0102,0.0095,0.0085,0.0061,0.0054,0.0043,0.004,0.0006,0.0,-0.0023,-0.0039,-0.0044,-0.0026,-0.0058,-0.0079,-0.0078,-0.0077,-0.0012,-0.0006,-0.0001,0,0,0,0,0,0.0134,0.0143,0.0134,0.0131,0.0102,0.0085,0.008,0.0054,0.0043,0.0044,0.002,0.0002,-0.0036,-0.004,-0.0047,-0.0028,-0.008,-0.0078,-0.0077,-0.0015,-0.0007,-0.0001,0,0,0,0,0,0,0.016,0.0139,0.0129,0.0131,0.0113,0.0079,0.0078,0.006,0.0041,0.0039,0.0005,-0.0002,-0.0007,-0.0028,-0.0032,-0.0032,-0.0059,-0.0059,-0.001,-0.0003,0.0002,0.002,-0.0059,0,0,0,0,0,0.0168,0.0171,0.0145,0.0148,0.0142,0.0111,0.0102,0.0086,0.0063,0.0054,0.0029,0.0007,-0.0007,-0.0014,-0.0033,-0.0034,-0.0066,-0.0025,-0.002,-0.0015,-0.0005,-0.004,-0.0037,-0.0073,-0.0073,-0.0073,0,0,0.018,0.0169,0.017,0.0154,0.0138,0.0141,0.0105,0.0097,0.0104,0.0052,0.0053,0.0024,-0.0004,-0.0005,-0.0008,-0.002,-0.0023,-0.0013,-0.0009,-0.0002,-0.0039,-0.0035,-0.0032,-0.0072,-0.0072,-0.0072,0,0,0.0208,0.0195,0.0208,0.0198,0.0182,0.0165,0.0167,0.0138,0.0129,0.0121,0.009,0.0073,0.0047,0.0034,0.0024,0.0049,0.0005,0.0043,0.0089,0.0055,0.0058,0.006,0.0017,0.0014,0.0049,0.0049,0.0049,0,0.0223,0.0237,0.0209,0.022,0.0223,0.0182,0.0201,0.0186,0.0157,0.0158,0.0132,0.0096,0.0069,0.0075,0.0082,0.0063,0.003,0.0067,0.0063,0.0064,0.0065,0.002,0.0017,0.0052,0.0052,0.0052,0.0051,0,0.026,0.0274,0.0281,0.0286,0.0284,0.0292,0.0271,0.0268,0.0249,0.023,0.0222,0.0175,0.0157,0.0145,0.0121,0.0123,0.0092,0.0071,0.0048,0.0073,0.0024,0.0019,0.0057,0.0056,0.0055,0.0054,0,0,0.029,0.0307,0.031,0.0333,0.0322,0.0328,0.0341,0.0344,0.0362,0.0318,0.0331,0.0294,0.0259,0.0245,0.0208,0.0178,0.015,0.0133,0.013,0.0094,0.0065,0.004,0.0031,0.0125,0.0125,0.0125,0.0025,0,0.0331,0.0376,0.037,0.0419,0.0443,0.0421,0.0439,0.0434,0.042,0.0418,0.0365,0.0358,0.0301,0.0293,0.0254,0.0177,0.0141,0.0178,0.0043,0.0039,0.0017,0.0027,0.0124,0.0021,0.002,0.0019,0.0019,0,0.0371,0.04,0.0455,0.0498,0.0506,0.0528,0.0557,0.0569,0.0553,0.054,0.0512,0.0461,0.0416,0.0361,0.0239,0.0262,0.0175,0.0106,0.01,0.0052,0.0005,-0.0009,0.0009,0.001,0.0011,0.0011,0.0012,0,0.0412,0.0462,0.0514,0.0526,0.0559,0.0588,0.0607,0.0609,0.0638,0.0621,0.0626,0.055,0.0517,0.0399,0.0249,0.0244,0.0101,0.0076,-0.0032,-0.0036,-0.0014,-0.0015,-0.0008,-0.0008,-0.0007,-0.0007,-0.0007,0,0.0455,0.05,0.0543,0.057,0.0643,0.0644,0.0716,0.0719,0.0736,0.0773,0.0695,0.0691,0.0525,0.0417,0.0274,0.0103,0.0116,-0.0022,-0.0058,0.0015,0.0019,-0.0018,-0.0018,-0.0011,-0.001,-0.0009,-0.0009,0,0.0489,0.0512,0.0581,0.0637,0.0664,0.0716,0.0798,0.0845,0.0847,0.089,0.0888,0.0797,0.0652,0.0471,0.0273,0.0145,-0.0019,-0.0082,0.0007,-0.0024,-0.0141,-0.0136,-0.0208,-0.0209,-0.0211,-0.0212,-0.0213,0,0.0507,0.0545,0.0634,0.0683,0.0716,0.0799,0.0858,0.0898,0.0949,0.0951,0.0968,0.085,0.0761,0.0468,0.0267,-0.0012,-0.0054,-0.0146,-0.014,-0.0131,-0.016,-0.0153,-0.0146,-0.0215,-0.0215,-0.0216,-0.0216,0,0.0544,0.0576,0.0632,0.0736,0.0813,0.0908,0.0992,0.1038,0.1075,0.1081,0.1035,0.088,0.0712,0.0472,0.0252,0.0052,-0.009,-0.0161,-0.0159,-0.0155,-0.014,-0.0166,-0.0158,-0.0221,-0.022,-0.022,-0.0219,0,0.057,0.0615,0.0689,0.0782,0.0884,0.0977,0.1026,0.1078,0.1124,0.1117,0.1097,0.0913,0.0809,0.0504,0.0303,0.01,0.0045,-0.0025,-0.0032,-0.0029,0.0046,0.0093,0.0057,0,0,0,0,0,0.0591,0.0641,0.0729,0.0829,0.0932,0.0994,0.1095,0.1134,0.117,0.1148,0.1127,0.0968,0.0666,0.0539,0.0333,0.0261,-0.0,0.001,-0.0086,-0.0247,-0.0242,-0.0187,0,0,0,0,0,0,0.0601,0.0682,0.0725,0.0851,0.0925,0.1044,0.1112,0.1139,0.1129,0.1128,0.0978,0.0903,0.0615,0.0784,0.0324,0.0263,0.0169,-0.0126,-0.0131,-0.025,-0.0245,-0.0241,-0.0183,0,0,0,0,0]}]]